Weather History for KOLY - August, 2013

Change the Weather History Date:

Saturday, August 17, 2013

  Actual Average (KEVV) Record (KEVV)
Temperature  
Mean Temperature 71 °F 77 °F  
Max Temperature 80 °F 88 °F 102 °F (1936)
Min Temperature 62 °F 66 °F 52 °F (1979)
Degree Days  
Heating Degree Days 0 0  
Month to date heating degree days 0  
Since 1 June heating degree days 6  
Since 1 July heating degree days 0  
Cooling Degree Days 6 12  
Month to date cooling degree days 207  
Year to date cooling degree days 1043  
Since 1 June cooling degree days 908  
Growing Degree Days 21 (Base 50)    
Moisture  
Dew Point 60 °F    
Average Humidity 72    
Maximum Humidity 82    
Minimum Humidity 54    
Precipitation  
Precipitation 0.00 in 0.11 in 2.33 in (2014)
Month to date precipitation 1.64  
Year to date precipitation 29.58  
Snow  
Snow 0.00 in 0.00 in - ()
Month to date snowfall 0.0  
Since 1 June snowfall 0.0  
Since 1 July snowfall 0.0  
Snow Depth -    
Sea Level Pressure  
Sea Level Pressure 30.14 in    
Wind  
Wind Speed 4 mph (NE)    
Max Wind Speed 7 mph    
Max Gust Speed -    
Visibility 10 miles    
Events Rain , Thunderstorm    
T = Trace of Precipitation, MM = Missing Value Source: NWS Daily Summary

Daily Weather History Graph

Daily Weather History Graph

Search for Another Location

Airport or City:

Trip Planner

Search our weather history database for the weather conditions in past years. The results will help you decide how hot, cold, wet, or windy it might be!

Date:

Astronomy

Aug. 17, 2013 Rise Set
Actual Time 6:08 AM CDT 7:44 PM CDT
Civil Twilight 5:40 AM CDT 8:12 PM CDT
Nautical Twilight 5:06 AM CDT 8:46 PM CDT
Astronomical Twilight 4:30 AM CDT 9:22 PM CDT
Moon 4:58 PM CDT (8/17) 2:12 AM CDT (8/17)
Length of Visible Light 14h 31m
Length of Day
13h 35m
Waxing Gibbous, 84% of the Moon is Illuminated
Aug 17
Waxing Gibbous
Aug 20
Full
Aug 28
Last Quarter
Sep 5
New
Sep 12
First Quarter

Hourly Weather History & Observations

Time (CDT) Temp. Heat Index Dew Point Humidity Pressure Visibility Wind Dir Wind Speed Gust Speed Precip Events Conditions
12:15 AM 64.4 °F - 57.2 °F 77% 30.14 in 10.0 mi NNE 4.6 mph - N/A   Clear
12:35 AM 64.4 °F - 57.2 °F 77% 30.14 in 10.0 mi NE 5.8 mph - N/A   Clear
12:55 AM 62.6 °F - 57.2 °F 82% 30.14 in 10.0 mi ENE 3.5 mph - N/A   Clear
1:15 AM 64.4 °F - 57.2 °F 77% - 10.0 mi NE 3.5 mph - N/A   Clear
1:35 AM 64.4 °F - 57.2 °F 77% 30.14 in - NE 4.6 mph - N/A   Clear
1:55 AM 62.6 °F - 57.2 °F 82% 30.14 in 10.0 mi NE 3.5 mph - N/A   Clear
2:15 AM 62.6 °F - 57.2 °F 82% 30.13 in 10.0 mi Calm Calm - N/A   Clear
2:35 AM 62.6 °F - 57.2 °F 82% 30.13 in 10.0 mi NNE 3.5 mph - N/A   Clear
2:55 AM 62.6 °F - 57.2 °F 82% 30.13 in 10.0 mi NNE 5.8 mph - N/A   Clear
3:15 AM 62.6 °F - 57.2 °F 82% 30.13 in 10.0 mi NE 5.8 mph - N/A   Clear
3:35 AM 62.6 °F - 57.2 °F 82% 30.13 in 10.0 mi NE 4.6 mph - N/A   Clear
3:55 AM 62.6 °F - 57.2 °F 82% 30.14 in 10.0 mi NE 4.6 mph - N/A   Clear
4:15 AM 62.6 °F - 57.2 °F 82% 30.14 in 10.0 mi NE 5.8 mph - N/A   Clear
4:35 AM 62.6 °F - 57.2 °F 82% 30.14 in 10.0 mi NE 5.8 mph - N/A   Scattered Clouds
4:55 AM 62.6 °F - 57.2 °F 82% 30.14 in 10.0 mi NE 5.8 mph - N/A   Scattered Clouds
5:15 AM 62.6 °F - 57.2 °F 82% 30.14 in 10.0 mi NE 4.6 mph - N/A   Mostly Cloudy
5:35 AM 62.6 °F - 57.2 °F 82% 30.14 in 10.0 mi NE 5.8 mph - N/A Thunderstorm Overcast
5:55 AM 62.6 °F - 57.2 °F 82% 30.15 in 10.0 mi ENE 4.6 mph - N/A   Overcast
6:15 AM 62.6 °F - 57.2 °F 82% 30.15 in 10.0 mi NE 3.5 mph - N/A   Overcast
6:35 AM 62.6 °F - 57.2 °F 82% 30.16 in 10.0 mi NE 4.6 mph - N/A   Mostly Cloudy
6:55 AM 62.6 °F - 57.2 °F 82% 30.16 in 10.0 mi NE 5.8 mph - N/A   Mostly Cloudy
7:15 AM 62.6 °F - 57.2 °F 82% 30.16 in 10.0 mi NE 5.8 mph - N/A   Overcast
7:35 AM 64.4 °F - 57.2 °F 77% 30.16 in 10.0 mi NE 3.5 mph - N/A Thunderstorm Scattered Clouds
7:55 AM 64.4 °F - 57.2 °F 77% 30.17 in 10.0 mi ENE 3.5 mph - N/A   Clear
8:15 AM 66.2 °F - 59.0 °F 78% 30.17 in 10.0 mi NE 4.6 mph - N/A   Clear
8:35 AM 66.2 °F - 59.0 °F 78% 30.18 in 10.0 mi ENE 6.9 mph - N/A   Clear
8:55 AM 66.2 °F - 59.0 °F 78% 30.18 in 10.0 mi NE 4.6 mph - N/A   Clear
9:15 AM 68.0 °F - 59.0 °F 73% 30.18 in 10.0 mi NE 4.6 mph - N/A   Clear
9:35 AM 68.0 °F - 59.0 °F 73% 30.18 in 10.0 mi ENE 6.9 mph - N/A   Clear
9:55 AM 68.0 °F - 59.0 °F 73% 30.19 in 10.0 mi ENE 4.6 mph - N/A   Clear
10:15 AM 69.8 °F - 60.8 °F 73% 30.19 in 10.0 mi East 3.5 mph - N/A   Scattered Clouds
10:35 AM 69.8 °F - 60.8 °F 73% 30.19 in 10.0 mi East 6.9 mph - N/A   Scattered Clouds
10:55 AM 71.6 °F - 60.8 °F 69% 30.19 in 10.0 mi East 6.9 mph - N/A   Clear
11:15 AM 71.6 °F - 60.8 °F 69% 30.18 in 10.0 mi Calm Calm - N/A   Clear
11:35 AM 73.4 °F - 60.8 °F 65% 30.18 in - NNE 3.5 mph - N/A   Scattered Clouds
11:55 AM 73.4 °F - 60.8 °F 65% 30.17 in 10.0 mi Calm Calm - N/A   Scattered Clouds
12:15 PM 75.2 °F - 62.6 °F 65% 30.16 in 10.0 mi North 3.5 mph - N/A   Clear
12:35 PM 75.2 °F - 62.6 °F 65% 30.16 in 10.0 mi Calm Calm - N/A   Clear
12:55 PM 77.0 °F - 62.6 °F 61% 30.15 in 10.0 mi Calm Calm - N/A   Clear
1:15 PM 77.0 °F - 64.4 °F 65% 30.15 in 10.0 mi East 3.5 mph - N/A   Clear
1:35 PM 75.2 °F - 62.6 °F 65% 30.15 in 1.5 mi ENE 3.5 mph - N/A   Haze
1:55 PM 75.2 °F - 62.6 °F 65% 30.14 in 10.0 mi East 4.6 mph - N/A   Clear
2:15 PM 78.8 °F - 64.4 °F 61% 30.14 in 10.0 mi East 4.6 mph - N/A   Clear
2:35 PM 78.8 °F - 62.6 °F 57% 30.13 in 10.0 mi East 6.9 mph - N/A   Clear
2:55 PM 77.0 °F - 62.6 °F 61% 30.13 in 10.0 mi East 4.6 mph - N/A   Scattered Clouds
3:15 PM 78.8 °F - 62.6 °F 57% 30.13 in 10.0 mi ENE 4.6 mph - N/A   Scattered Clouds
3:35 PM 77.0 °F - 60.8 °F 57% 30.13 in 10.0 mi ENE 4.6 mph - N/A   Scattered Clouds
3:55 PM 78.8 °F - 62.6 °F 57% 30.12 in 10.0 mi Calm Calm - N/A   Clear
4:15 PM 78.8 °F - 62.6 °F 57% 30.12 in 10.0 mi NNE 3.5 mph - N/A   Scattered Clouds
4:35 PM 80.6 °F 81.8 °F 62.6 °F 54% 30.12 in 10.0 mi NE 6.9 mph - N/A   Scattered Clouds
4:55 PM 78.8 °F - 60.8 °F 54% 30.12 in 10.0 mi NE 6.9 mph - N/A   Scattered Clouds
5:15 PM 78.8 °F - 62.6 °F 57% 30.12 in 10.0 mi NE 5.8 mph - N/A   Scattered Clouds
5:35 PM 77.0 °F - 62.6 °F 61% 30.12 in 10.0 mi NNE 4.6 mph - N/A   Scattered Clouds
5:55 PM 77.0 °F - 62.6 °F 61% 30.12 in 10.0 mi Calm Calm - N/A   Scattered Clouds
6:15 PM 75.2 °F - 62.6 °F 65% 30.11 in 10.0 mi NNE 3.5 mph - N/A   Mostly Cloudy
6:35 PM 75.2 °F - 62.6 °F 65% 30.11 in 10.0 mi Calm Calm - N/A   Scattered Clouds
6:55 PM 75.2 °F - 62.6 °F 65% 30.11 in 10.0 mi Calm Calm - N/A   Scattered Clouds
7:15 PM 73.4 °F - 62.6 °F 69% 30.11 in 10.0 mi Calm Calm - N/A   Scattered Clouds
7:35 PM 73.4 °F - 62.6 °F 69% 30.11 in 10.0 mi Calm Calm - N/A Rain Light Rain
7:55 PM 71.6 °F - 64.4 °F 78% 30.12 in 10.0 mi Calm Calm - N/A   Scattered Clouds
8:15 PM 71.6 °F - 62.6 °F 73% 30.12 in 10.0 mi Calm Calm - N/A   Scattered Clouds
8:35 PM 71.6 °F - 62.6 °F 73% 30.12 in 10.0 mi North 3.5 mph - N/A   Scattered Clouds
8:55 PM 71.6 °F - 62.6 °F 73% 30.12 in 10.0 mi Calm Calm - N/A   Scattered Clouds
9:15 PM 71.6 °F - 60.8 °F 69% 30.12 in 10.0 mi North 3.5 mph - N/A   Mostly Cloudy
9:35 PM 71.6 °F - 60.8 °F 69% 30.12 in 10.0 mi North 3.5 mph - N/A   Mostly Cloudy
9:55 PM 71.6 °F - 60.8 °F 69% 30.12 in 10.0 mi Calm Calm - N/A   Overcast
10:15 PM 71.6 °F - 60.8 °F 69% 30.12 in 10.0 mi Calm Calm - N/A   Overcast
10:35 PM 71.6 °F - 60.8 °F 69% 30.11 in 10.0 mi North 3.5 mph - N/A   Overcast
10:55 PM 71.6 °F - 60.8 °F 69% 30.11 in 10.0 mi NNE 4.6 mph - N/A   Overcast
11:15 PM 69.8 °F - 60.8 °F 73% 30.11 in 10.0 mi NE 5.8 mph - N/A   Mostly Cloudy
11:35 PM 69.8 °F - 60.8 °F 73% 30.11 in 10.0 mi NE 3.5 mph - N/A   Scattered Clouds
11:55 PM 68.0 °F - 60.8 °F 78% 30.11 in 10.0 mi NNE 3.5 mph - N/A   Clear